Wind_Speed
41 40 39 36 34 31 29 27 25 23 22 22 23 26 30 34 32 24 23 13 8 5 13 11 9 13 12 9 5 11 5 1 4 4 3 4 3 5 2 4 6 7 6 4 3 2 8 8 4 7 6 5 13 24
39 38 36 33 31 29 27 24 23 21 21 21 22 22 27 32 29 24 16 11 9 7 9 10 9 11 6 8 15 20 6 6 7 4 1 3 2 2 2 3 2 2 6 4 8 6 5 15 8 15 6 7 12 21
39 37 34 31 29 27 25 22 22 21 19 20 20 19 23 28 30 25 19 15 11 16 12 10 11 11 9 8 9 9 5 7 7 6 9 3 3 4 4 5 1 4 6 2 2 4 13 17 21 27 21 22 22 18
36 34 31 29 26 24 23 21 20 20 18 19 17 18 20 23 21 19 18 17 11 10 6 4 9 11 10 11 7 6 4 13 12 8 5 3 3 9 3 3 3 4 7 4 5 12 17 19 19 20 22 21 21 21
34 31 29 27 25 22 21 19 18 19 18 18 17 15 16 18 17 17 19 14 14 5 6 9 11 10 8 7 6 4 5 11 9 5 3 3 5 4 2 2 3 9 7 4 6 20 11 16 19 14 16 21 22 19
31 30 27 25 22 19 18 17 17 17 17 17 16 16 16 17 16 15 6 9 11 11 6 2 4 5 7 7 7 9 9 7 7 5 4 5 5 6 4 4 12 18 20 22 19 20 17 20 19 19 22 22 20 16
28 27 25 23 20 17 16 15 15 16 15 15 14 13 13 12 12 6 6 10 10 9 4 4 2 4 6 6 6 6 6 4 4 3 4 4 5 7 3 4 22 19 19 19 19 17 15 18 17 16 16 14 13 15
24 22 21 21 15 13 14 13 13 14 14 13 12 11 11 11 11 10 10 10 10 6 4 3 2 2 3 3 3 2 3 3 1 2 2 3 6 3 3 14 18 18 15 16 14 13 14 15 14 11 9 12 14 20
20 19 18 21 24 11 12 13 12 13 13 13 12 12 11 8 5 8 8 8 7 4 6 3 4 3 3 3 2 2 0 2 1 3 2 5 1 4 2 11 13 10 9 11 10 7 8 6 4 7 10 14 23 20
21 18 17 17 19 18 12 12 13 14 14 15 15 5 5 8 12 10 4 3 3 4 4 4 4 2 2 2 3 1 2 1 1 3 3 2 2 3 14 11 10 11 12 9 7 2 5 9 10 16 18 17 15 10
22 20 18 17 17 17 16 15 16 16 17 12 4 5 14 14 5 3 4 5 4 4 3 3 1 2 2 2 2 1 2 0 2 3 3 1 1 6 11 12 13 11 8 7 4 6 8 13 17 14 13 13 10 4
19 19 21 19 17 17 18 16 15 13 8 8 12 15 8 3 4 5 2 2 2 2 2 2 2 2 2 3 4 3 2 1 4 1 1 1 2 5 16 18 18 17 17 17 14 17 17 15 15 14 8 3 4 8
22 20 17 17 18 14 15 16 12 14 22 11 5 4 3 5 4 3 4 1 1 1 1 2 1 1 2 1 5 2 3 3 4 1 1 2 8 7 9 12 15 16 16 15 17 17 14 11 8 5 3 6 11 11
19 18 17 16 14 12 11 13 15 16 6 5 4 4 2 2 2 2 1 2 2 2 3 3 3 2 2 2 1 2 1 1 2 1 2 2 3 3 8 9 11 10 10 13 12 9 7 4 3 3 6 8 9 10
16 16 15 15 10 9 10 11 11 8 4 5 4 3 2 4 4 3 5 5 5 5 5 4 4 2 2 2 2 2 2 1 1 2 1 10 7 8 7 7 7 7 6 3 1 4 5 6 6 6 7 8 8 8
11 11 18 16 12 9 8 8 7 6 5 5 5 4 6 4 3 4 6 6 5 5 6 4 2 2 2 1 2 2 3 2 1 1 9 8 5 4 7 5 4 1 1 1 1 3 5 7 8 9 9 8 9 12
5 13 12 12 11 9 9 11 4 6 6 4 4 8 5 9 6 5 6 4 5 2 2 3 3 3 2 2 1 1 3 3 8 11 10 9 4 3 3 3 2 1 1 2 3 4 6 7 8 10 12 13 13 14
13 10 8 8 6 8 10 7 5 6 6 5 3 5 6 8 10 8 6 4 1 3 2 2 5 2 4 5 2 3 6 12 11 12 8 4 3 3 4 2 1 1 2 4 6 6 8 9 11 12 14 17 19 21
15 12 10 7 6 4 4 5 5 5 6 5 7 7 5 7 7 7 5 3 3 4 4 3 3 2 3 4 5 11 11 12 9 8 6 2 4 3 1 1 4 4 3 3 4 4 6 8 12 16 21 25 28 30
12 12 12 11 5 5 5 5 5 5 3 3 3 3 3 3 1 3 5 3 3 2 1 1 4 2 2 4 3 3 6 6 5 6 8 6 3 4 5 5 3 2 2 3 5 8 12 17 21 25 27 27 29 31
9 12 12 11 9 9 5 4 5 4 3 2 2 1 0 2 3 1 2 3 1 2 1 2 1 5 7 10 11 9 8 7 5 3 6 5 4 4 5 3 1 3 6 9 13 17 20 23 24 25 26 27 28 29
12 10 8 8 6 5 6 7 4 3 2 2 2 1 1 1 2 2 2 2 2 2 2 1 0 6 9 9 8 8 6 4 3 2 3 7 8 5 1 3 6 9 12 15 18 19 20 21 23 25 26 28 29 30
9 9 6 8 5 6 3 3 3 2 1 0 1 2 2 2 2 4 2 3 2 6 5 3 1 5 7 6 6 10 9 5 3 5 7 5 1 2 6 9 12 14 15 16 18 20 21 23 25 28 29 30 31 32
8 4 4 5 6 2 3 3 3 3 2 1 1 2 1 1 4 2 2 2 3 4 5 6 6 8 11 11 8 6 7 6 5 4 1 3 4 7 9 10 12 14 16 18 20 21 23 26 27 28 28 29 29 30
2 5 3 3 2 2 2 2 2 2 2 2 1 3 3 4 1 1 1 1 3 4 6 12 11 9 8 8 7 5 4 2 2 2 3 5 6 7 8 10 13 16 19 22 24 26 27 27 26 26 26 26 26 26
5 4 2 1 1 1 2 0 3 2 1 2 4 1 3 3 2 2 1 3 4 6 7 7 10 11 8 5 3 2 3 4 4 3 3 3 5 8 11 14 17 19 22 24 26 26 26 25 24 23 22 22 23 24
2 2 0 2 2 3 4 6 4 3 3 3 1 1 1 2 1 2 2 4 6 7 7 6 4 3 2 1 2 3 4 4 3 2 4 6 10 13 15 18 21 21 22 22 21 22 23 22 21 21 21 22 23 24
1 1 0 2 4 5 3 1 1 1 2 2 2 2 1 2 1 2 3 4 4 3 2 3 4 5 2 1 2 4 4 4 3 5 8 11 13 15 16 17 18 19 19 19 20 19 19 20 20 20 21 23 24 24
1 2 4 3 3 2 2 2 3 3 5 2 2 2 2 2 3 6 6 4 2 1 3 3 3 1 2 2 3 3 4 5 7 8 10 12 14 16 17 19 19 19 19 19 18 19 19 18 18 20 20 21 21 21
4 7 3 2 1 1 0 5 6 5 3 1 3 5 5 6 5 5 3 3 4 4 2 1 2 4 4 3 3 5 6 8 10 13 16 18 19 20 20 19 19 19 20 20 20 18 18 17 16 16 16 16 16 16
4 3 2 2 1 1 4 6 4 2 2 1 2 2 6 7 7 5 4 3 1 2 4 5 4 3 4 5 7 9 11 13 15 17 18 19 19 20 20 20 20 20 20 20 19 19 18 17 17 17 17 17 16 16
3 2 4 2 1 2 4 2 3 2 2 2 2 3 5 5 4 4 2 2 1 3 2 2 2 3 5 7 10 13 15 17 18 18 18 18 18 19 20 21 20 18 18 18 17 17 17 17 17 17 17 16 16 16
2 3 3 3 2 2 2 5 1 0 2 1 2 2 3 2 3 3 1 1 1 2 3 3 5 8 11 13 15 17 17 18 18 18 18 20 20 20 20 19 18 17 17 17 17 16 16 16 16 16 16 15 15 15
Wind_Direction
154 152 150 152 153 152 152 152 152 153 154 155 158 162 172 176 179 186 203 235 213 130 145 164 152 150 154 150 135 154 91 285 47 71 121 202 143 220 131 187 179 170 153 198 102 66 281 172 111 161 218 202 195 200
155 151 151 152 151 150 148 148 149 146 145 147 146 153 169 173 175 181 207 196 139 132 139 159 174 190 175 166 142 163 174 160 157 90 60 121 156 161 145 240 43 236 189 182 184 216 234 203 233 226 262 246 226 222
151 150 151 151 149 147 145 143 145 149 139 140 140 145 156 163 162 196 199 168 144 117 105 114 110 147 150 156 156 141 182 165 164 131 145 153 152 133 166 238 141 248 173 196 82 254 247 260 246 256 264 265 274 273
149 150 149 147 146 144 141 140 140 143 144 139 137 136 145 156 168 183 180 168 153 127 114 110 123 116 130 142 128 126 157 168 155 148 114 139 149 195 210 196 165 201 153 185 262 279 277 275 274 282 278 277 272 266
147 145 147 146 145 145 140 139 139 137 139 139 143 137 132 142 140 159 158 147 154 150 135 125 118 98 116 130 140 130 145 168 161 139 112 205 151 124 91 76 259 195 193 165 231 268 253 282 300 295 286 289 282 260
144 147 145 145 143 146 145 144 139 135 135 137 139 144 143 143 145 142 107 115 124 113 109 117 130 120 122 134 157 158 176 185 183 171 173 193 185 176 151 197 250 237 240 250 251 280 289 293 290 291 289 284 267 232
145 145 145 143 150 151 147 146 142 137 135 136 138 141 144 147 153 121 118 139 144 125 95 74 29 135 154 148 155 177 194 205 208 185 198 181 157 181 141 188 257 271 270 272 275 278 281 287 296 296 285 263 223 202
143 146 151 147 154 155 150 150 147 141 135 133 134 136 139 135 126 101 101 135 142 124 101 107 273 123 157 171 176 209 201 190 87 158 172 123 132 120 237 250 279 289 289 286 292 287 279 288 291 273 238 205 182 150
141 143 146 160 177 179 156 151 149 144 143 140 135 131 125 127 105 116 115 122 145 118 113 92 135 215 179 153 150 130 125 55 272 203 222 150 166 218 283 328 322 327 335 310 309 306 292 277 203 180 179 169 155 145
139 143 144 150 160 181 167 156 154 151 146 142 138 104 99 116 128 127 105 100 94 59 67 91 142 128 148 144 66 105 43 154 255 240 166 159 249 34 352 345 327 318 283 282 268 128 163 151 152 144 138 133 127 114
116 122 134 142 149 158 162 159 156 151 151 143 111 71 122 126 116 108 73 54 24 47 34 78 93 110 138 116 177 120 170 114 235 251 196 225 302 8 20 44 48 51 53 68 70 112 129 132 126 117 101 78 62 40
102 111 113 119 137 150 162 164 160 161 149 124 112 113 119 90 68 80 53 61 76 173 82 122 119 132 146 154 111 158 167 111 246 132 117 243 47 72 96 75 71 62 60 72 75 95 104 96 85 76 66 33 312 292
89 91 102 113 110 127 132 142 143 136 126 110 83 86 37 11 73 124 152 298 118 56 107 135 70 135 132 120 77 102 181 224 127 160 221 80 121 108 63 68 72 63 56 68 76 77 82 81 74 55 0 298 280 286
87 88 88 87 99 116 128 147 147 139 94 61 58 62 38 65 58 87 76 91 103 75 105 118 79 74 58 73 94 150 17 343 219 194 235 122 145 67 58 103 101 79 70 86 98 92 79 58 19 331 313 309 307 300
82 80 87 91 101 117 133 140 131 126 94 83 59 78 67 121 97 122 108 109 114 115 119 106 77 79 36 94 51 83 33 274 168 223 59 139 79 103 111 129 102 103 114 352 70 1 357 349 351 343 333 324 317 316
71 82 68 63 72 117 139 147 140 65 67 68 67 91 129 99 111 118 125 116 117 130 110 96 100 77 50 72 75 198 120 200 230 32 138 115 76 54 28 94 191 310 62 10 358 352 352 350 349 349 349 339 326 322
76 65 53 55 62 90 112 130 89 57 66 60 62 102 105 101 111 101 96 97 125 152 107 106 100 179 107 84 130 127 155 171 129 131 130 122 108 298 277 180 185 247 42 44 1 347 336 340 341 331 330 330 324 320
71 54 47 46 71 79 73 53 65 68 66 66 72 87 82 109 123 111 98 113 106 116 145 161 125 107 162 163 245 191 172 159 156 163 191 257 246 217 163 156 156 324 316 313 312 320 326 324 325 326 323 320 316 312
57 51 51 46 55 70 55 49 44 82 62 73 93 92 100 114 118 126 125 122 40 92 138 139 82 173 223 209 172 181 187 184 186 216 247 205 147 142 114 346 287 265 272 293 308 318 324 324 324 322 320 320 321 321
49 46 47 46 57 66 62 43 51 75 83 71 87 93 86 91 139 223 218 215 266 291 255 146 207 211 136 108 147 146 178 178 190 186 166 162 192 257 288 273 222 233 266 285 305 316 318 319 322 322 323 325 324 323
43 38 36 37 51 64 73 57 64 67 80 66 117 129 103 8 332 308 270 243 301 269 304 336 13 144 130 128 121 121 133 145 163 174 203 203 190 191 167 167 212 295 316 323 325 324 325 326 325 326 326 327 325 322
26 26 34 46 56 62 73 44 64 72 52 80 119 280 264 240 235 222 242 230 243 240 268 318 138 163 155 150 152 168 175 188 212 220 195 171 165 175 205 331 327 332 332 333 331 330 330 330 329 328 327 326 324 323
23 22 47 37 48 47 27 68 41 54 57 219 332 290 244 213 201 192 263 244 247 230 251 241 175 162 164 161 192 165 158 164 171 147 148 148 113 353 334 328 327 327 326 329 333 333 331 329 327 326 327 326 326 325
31 46 46 40 37 52 13 17 8 9 358 303 142 277 286 205 177 213 251 256 245 241 230 200 179 160 140 139 129 111 118 124 131 138 177 269 297 319 325 326 328 332 333 332 329 326 325 327 329 330 332 331 332 333
44 32 41 48 40 48 51 12 329 250 262 270 260 300 211 185 145 239 258 319 161 171 175 177 175 180 163 139 116 107 127 208 240 277 335 348 339 332 332 335 335 332 328 325 326 329 332 333 334 335 336 337 340 347
54 25 58 99 341 35 200 203 214 238 212 273 238 218 162 126 120 232 53 36 103 93 110 132 139 137 129 124 105 56 25 12 3 342 341 340 337 335 334 332 331 332 332 331 331 331 333 335 335 333 333 334 334 334
74 283 331 238 262 282 269 256 248 212 227 227 210 209 211 204 156 62 29 69 131 124 118 99 62 39 94 92 340 341 3 9 7 4 356 342 334 332 333 334 334 334 333 332 332 329 329 330 331 331 332 334 334 331
354 341 228 316 265 243 253 242 248 301 358 2 119 42 34 22 92 34 56 105 138 137 115 77 45 28 30 65 19 7 11 20 11 350 336 328 329 331 331 331 331 333 335 333 331 330 329 328 328 329 330 329 330 329
247 331 279 256 266 283 50 44 5 7 338 259 118 108 115 107 140 146 156 157 169 290 319 327 340 10 353 346 354 6 11 0 348 329 317 319 322 328 331 332 333 333 331 330 330 329 330 329 328 326 327 328 329 330
1 353 316 284 230 255 339 6 340 351 359 38 129 126 122 127 135 163 179 238 282 295 299 326 346 352 353 11 1 345 340 338 340 338 335 331 330 329 329 328 329 329 329 330 332 333 330 327 324 323 324 327 331 333
313 304 270 260 281 326 342 323 319 333 289 152 100 148 143 147 153 148 163 166 197 290 308 314 328 342 347 345 341 338 339 336 333 331 326 324 325 325 326 329 331 330 329 331 331 330 330 331 331 333 335 337 337 338
332 358 352 335 322 306 305 293 266 236 247 251 146 127 145 155 156 183 216 250 323 4 3 353 340 347 342 340 339 337 332 330 328 325 322 323 327 329 330 331 331 330 329 330 330 331 332 332 333 334 335 336 337 337
278 291 293 306 300 288 318 329 347 239 203 113 84 104 138 135 126 163 155 154 47 6 6 19 11 355 345 338 332 328 327 328 325 324 327 329 330 329 329 330 331 332 332 332 332 333 333 334 333 333 332 333 333 334
Height
1335 1343 1352 1362 1370 1377 1384 1390 1395 1400 1405 1408 1411 1414 1420 1427 1436 1441 1446 1448 1450 1449 1455 1459 1462 1465 1471 1474 1483 1489 1496 1497 1500 1513 1522 1527 1533 1522 1523 1517 1523 1526 1538 1546 1554 1559 1528 1499 1503 1509 1497 1492 1493 1494
1344 1352 1360 1369 1376 1382 1388 1393 1398 1403 1406 1410 1412 1416 1422 1428 1434 1441 1446 1447 1447 1449 1456 1460 1463 1465 1468 1471 1473 1482 1484 1486 1489 1504 1516 1518 1521 1521 1526 1523 1514 1520 1513 1521 1521 1514 1497 1497 1493 1492 1492 1492 1491 1491
1353 1361 1368 1375 1381 1386 1392 1397 1401 1405 1409 1412 1415 1419 1423 1428 1433 1443 1444 1446 1447 1451 1459 1463 1465 1467 1468 1471 1473 1476 1483 1484 1486 1488 1497 1508 1514 1515 1521 1518 1512 1506 1504 1511 1508 1494 1491 1491 1491 1490 1490 1489 1489 1489
1361 1368 1374 1380 1386 1391 1395 1400 1405 1408 1412 1414 1418 1422 1426 1430 1435 1439 1441 1444 1447 1451 1457 1466 1466 1467 1469 1471 1473 1475 1477 1481 1485 1488 1492 1501 1509 1503 1514 1508 1510 1503 1502 1502 1503 1492 1488 1487 1486 1486 1485 1484 1484 1484
1368 1373 1380 1385 1389 1395 1399 1403 1408 1411 1414 1417 1420 1424 1427 1430 1434 1439 1442 1444 1446 1451 1456 1464 1467 1469 1470 1472 1474 1476 1478 1480 1483 1487 1491 1497 1495 1500 1505 1506 1507 1493 1493 1500 1498 1483 1484 1484 1483 1483 1482 1480 1480 1480
1375 1381 1385 1390 1394 1398 1403 1409 1412 1414 1416 1420 1423 1427 1430 1434 1437 1440 1443 1447 1448 1450 1455 1467 1470 1471 1472 1473 1475 1476 1478 1480 1481 1482 1485 1486 1487 1491 1501 1504 1485 1482 1482 1482 1481 1480 1480 1479 1479 1479 1478 1477 1476 1477
1382 1385 1390 1395 1400 1404 1408 1411 1414 1416 1419 1423 1426 1430 1432 1435 1437 1440 1444 1447 1450 1452 1455 1467 1469 1471 1472 1474 1475 1477 1478 1479 1481 1482 1483 1484 1485 1489 1494 1499 1475 1478 1478 1478 1477 1477 1476 1475 1474 1474 1473 1473 1474 1477
1387 1391 1395 1398 1403 1407 1410 1413 1416 1418 1421 1425 1428 1431 1434 1436 1440 1443 1446 1448 1451 1454 1458 1468 1472 1472 1473 1473 1475 1476 1477 1478 1480 1481 1483 1483 1486 1488 1489 1475 1474 1474 1473 1473 1473 1472 1472 1471 1471 1470 1470 1472 1475 1478
1392 1395 1399 1402 1407 1411 1413 1416 1418 1421 1423 1427 1430 1434 1437 1440 1443 1446 1449 1451 1453 1458 1459 1465 1472 1476 1473 1473 1474 1476 1477 1480 1482 1481 1482 1484 1486 1484 1479 1476 1473 1473 1472 1471 1471 1470 1470 1469 1469 1470 1471 1474 1473 1478
1398 1401 1404 1407 1410 1413 1416 1419 1422 1424 1427 1430 1434 1436 1439 1443 1446 1449 1452 1453 1456 1458 1461 1465 1469 1473 1473 1474 1476 1479 1479 1482 1482 1482 1481 1481 1479 1480 1479 1476 1473 1470 1469 1468 1467 1468 1468 1469 1470 1472 1473 1477 1479 1481
1403 1406 1408 1409 1413 1416 1420 1423 1426 1428 1430 1433 1435 1439 1443 1446 1448 1450 1454 1458 1463 1465 1466 1468 1470 1471 1474 1476 1477 1480 1481 1483 1482 1481 1481 1479 1479 1483 1480 1477 1474 1472 1469 1468 1469 1469 1471 1473 1476 1478 1481 1482 1484 1485
1409 1411 1413 1416 1418 1421 1424 1426 1428 1430 1432 1434 1436 1442 1446 1448 1450 1455 1463 1465 1465 1467 1468 1469 1471 1472 1473 1474 1475 1480 1481 1483 1478 1480 1480 1478 1486 1485 1483 1481 1479 1478 1476 1475 1476 1476 1477 1478 1480 1482 1484 1486 1486 1486
1419 1418 1417 1418 1421 1423 1425 1428 1431 1433 1434 1437 1440 1444 1447 1453 1456 1458 1462 1465 1467 1467 1468 1469 1471 1471 1473 1474 1475 1478 1479 1479 1480 1480 1478 1484 1486 1485 1483 1483 1482 1482 1481 1480 1481 1481 1482 1484 1485 1486 1486 1485 1484 1483
1425 1424 1423 1424 1425 1427 1429 1430 1432 1434 1437 1441 1445 1451 1455 1458 1462 1463 1465 1466 1469 1469 1469 1470 1471 1472 1473 1475 1477 1477 1481 1481 1477 1483 1487 1484 1485 1486 1487 1486 1486 1486 1485 1485 1485 1485 1485 1484 1484 1483 1482 1481 1481 1480
1430 1430 1429 1429 1431 1432 1433 1434 1435 1437 1440 1445 1449 1457 1460 1462 1463 1465 1466 1466 1468 1469 1469 1470 1472 1474 1475 1477 1478 1482 1483 1485 1488 1491 1483 1485 1486 1487 1489 1489 1488 1488 1487 1487 1487 1486 1486 1485 1484 1483 1481 1480 1479 1478
1435 1435 1433 1434 1435 1436 1437 1438 1439 1440 1443 1451 1456 1461 1463 1463 1466 1466 1467 1467 1468 1469 1470 1471 1473 1475 1478 1479 1481 1484 1487 1489 1486 1484 1485 1486 1487 1488 1489 1489 1489 1488 1488 1487 1487 1486 1485 1484 1483 1482 1480 1479 1477 1476
1440 1439 1440 1440 1440 1440 1440 1442 1442 1445 1451 1457 1461 1462 1463 1464 1465 1467 1467 1468 1469 1470 1471 1472 1475 1477 1480 1481 1481 1480 1481 1483 1484 1485 1486 1487 1487 1487 1488 1489 1489 1487 1487 1487 1486 1486 1485 1483 1482 1480 1478 1477 1476 1474
1442 1444 1444 1443 1443 1443 1443 1444 1447 1453 1459 1463 1464 1464 1465 1465 1467 1468 1469 1471 1472 1471 1471 1473 1473 1479 1483 1484 1484 1479 1478 1480 1482 1484 1485 1486 1485 1486 1486 1487 1489 1489 1488 1487 1486 1484 1483 1483 1481 1479 1478 1476 1473 1471
1447 1447 1446 1445 1445 1446 1448 1452 1454 1460 1464 1466 1467 1467 1468 1469 1470 1471 1472 1473 1472 1471 1472 1472 1476 1480 1478 1474 1474 1475 1477 1479 1482 1484 1485 1485 1485 1486 1486 1487 1488 1487 1486 1486 1485 1483 1482 1481 1480 1477 1474 1471 1467 1464
1452 1451 1450 1449 1449 1449 1454 1459 1460 1463 1467 1469 1469 1471 1472 1472 1473 1473 1474 1474 1473 1473 1472 1473 1472 1471 1472 1473 1474 1475 1476 1479 1480 1482 1483 1484 1484 1485 1486 1486 1486 1485 1485 1484 1483 1482 1480 1478 1476 1472 1469 1466 1462 1458
1456 1454 1452 1452 1452 1455 1460 1463 1465 1468 1470 1471 1472 1473 1473 1473 1473 1473 1473 1473 1473 1472 1471 1472 1471 1472 1473 1474 1475 1477 1478 1480 1481 1482 1482 1483 1483 1484 1484 1484 1485 1484 1483 1481 1480 1478 1476 1474 1471 1468 1465 1462 1458 1454
1458 1458 1457 1456 1457 1460 1464 1467 1469 1471 1473 1474 1474 1474 1474 1474 1473 1473 1473 1473 1472 1472 1473 1473 1472 1473 1474 1475 1476 1477 1477 1478 1480 1480 1480 1481 1481 1482 1483 1483 1483 1481 1480 1479 1478 1476 1473 1471 1468 1465 1461 1457 1452 1448
1461 1460 1460 1462 1463 1466 1473 1472 1472 1472 1474 1474 1474 1474 1474 1474 1474 1475 1474 1472 1471 1471 1472 1472 1472 1472 1473 1474 1474 1475 1475 1477 1477 1479 1480 1480 1481 1481 1482 1481 1481 1480 1479 1477 1475 1473 1470 1467 1463 1459 1455 1451 1446 1441
1463 1464 1466 1468 1469 1472 1474 1474 1474 1474 1474 1475 1475 1475 1474 1473 1474 1473 1473 1471 1470 1470 1470 1470 1471 1472 1473 1474 1475 1475 1476 1478 1478 1479 1480 1480 1481 1481 1480 1480 1479 1477 1476 1474 1472 1469 1466 1462 1458 1454 1450 1445 1441 1436
1469 1473 1473 1474 1474 1474 1476 1476 1476 1476 1476 1476 1474 1474 1471 1473 1474 1474 1473 1471 1470 1469 1469 1469 1470 1471 1473 1474 1476 1477 1478 1478 1479 1479 1480 1480 1479 1479 1479 1478 1476 1475 1472 1470 1467 1463 1460 1456 1453 1449 1445 1441 1437 1433
1473 1474 1475 1475 1475 1476 1477 1479 1478 1475 1475 1475 1472 1470 1471 1472 1476 1474 1473 1473 1473 1472 1471 1471 1471 1472 1473 1476 1477 1478 1478 1478 1479 1479 1479 1479 1479 1478 1476 1475 1473 1471 1468 1464 1460 1457 1454 1451 1448 1445 1442 1438 1435 1431
1475 1475 1475 1475 1476 1477 1476 1474 1473 1474 1473 1471 1470 1472 1471 1471 1472 1476 1476 1474 1474 1474 1474 1474 1475 1475 1475 1476 1477 1478 1478 1478 1479 1479 1478 1477 1477 1475 1473 1471 1468 1466 1463 1460 1457 1454 1450 1447 1444 1441 1438 1435 1432 1428
1476 1476 1477 1477 1476 1475 1474 1473 1473 1471 1470 1471 1471 1472 1472 1474 1477 1478 1477 1477 1477 1477 1477 1476 1476 1477 1477 1477 1478 1478 1478 1478 1477 1477 1476 1476 1474 1472 1470 1468 1465 1462 1459 1456 1454 1451 1447 1444 1440 1437 1434 1431 1428 1424
1476 1476 1476 1475 1474 1473 1473 1473 1473 1473 1472 1471 1471 1473 1475 1476 1477 1477 1478 1478 1478 1478 1478 1478 1477 1478 1478 1478 1478 1478 1478 1477 1477 1476 1476 1474 1473 1470 1467 1464 1461 1458 1456 1453 1450 1447 1443 1440 1437 1434 1431 1428 1425 1421
1477 1477 1475 1474 1474 1474 1474 1473 1473 1472 1471 1470 1471 1473 1475 1476 1477 1478 1478 1478 1478 1478 1478 1478 1478 1478 1477 1477 1478 1477 1477 1476 1475 1474 1472 1470 1467 1465 1462 1460 1457 1454 1451 1448 1445 1443 1440 1437 1435 1432 1429 1425 1422 1419
1476 1476 1475 1474 1473 1473 1473 1473 1472 1472 1472 1471 1471 1472 1474 1476 1477 1478 1478 1478 1478 1478 1478 1478 1478 1477 1477 1477 1476 1476 1475 1474 1472 1470 1468 1466 1463 1461 1458 1455 1452 1449 1447 1444 1441 1438 1436 1433 1430 1427 1424 1421 1419 1416
1475 1475 1475 1474 1473 1473 1472 1471 1471 1471 1471 1471 1471 1472 1473 1475 1476 1478 1478 1478 1478 1478 1478 1478 1478 1477 1477 1476 1475 1474 1472 1470 1468 1466 1464 1461 1459 1456 1453 1451 1448 1446 1443 1440 1438 1435 1432 1429 1427 1424 1421 1419 1416 1414
1475 1474 1474 1473 1472 1472 1472 1471 1469 1469 1470 1470 1471 1472 1472 1474 1475 1478 1478 1478 1478 1478 1478 1477 1477 1476 1475 1474 1472 1471 1468 1466 1464 1461 1459 1456 1454 1452 1449 1447 1445 1442 1440 1437 1434 1432 1429 1427 1424 1422 1419 1417 1414 1412